Frankfort, MI

2:23 PM EDT on April 28, 2017 (GMT -0400)
Frankfort

Weather History for KFKS - July, 2013

Change the Weather History Date:

Tuesday, July 23, 2013

  Actual Average (KMBL) Record (KMBL)
Temperature  
Mean Temperature 68 °F -  
Max Temperature 77 °F 82 °F 92 °F (1987)
Min Temperature 59 °F 58 °F 43 °F (1985)
Cooling Degree Days 3    
Growing Degree Days 18 (Base 50)    
Moisture  
Dew Point 53 °F    
Average Humidity 64    
Maximum Humidity 83    
Minimum Humidity 53    
Precipitation  
Precipitation 0.00 in - - ()
Sea Level Pressure  
Sea Level Pressure 29.82 in    
Wind  
Wind Speed 10 mph (NNW)    
Max Wind Speed 17 mph    
Max Gust Speed 28 mph    
Visibility 10 miles    
Events Rain    
Averages and records for this station are not official NWS values.
T = Trace of Precipitation, MM = Missing Value Source: NWS Daily Summary

Daily Weather History Graph

Daily Weather History Graph

Search for Another Location

Airport or City:

Trip Planner

Search our weather history database for the weather conditions in past years. The results will help you decide how hot, cold, wet, or windy it might be!

Date:

Astronomy

Jul. 23, 2013 Rise Set
Actual Time 6:21 AM EDT 9:20 PM EDT
Civil Twilight 5:47 AM EDT 9:54 PM EDT
Nautical Twilight 5:02 AM EDT 10:38 PM EDT
Astronomical Twilight 4:10 AM EDT 11:30 PM EDT
Moon 9:41 PM EDT (7/23) 7:34 AM EDT (7/23)
Length of Visible Light 16h 07m
Length of Day
14h 58m
Full, 99% of the Moon is Illuminated
Jul 23
Full
Jul 29
Last Quarter
Aug 6
New
Aug 14
First Quarter
Aug 20
Full

Hourly Weather History & Observations

Time (EDT) Temp. Dew Point Humidity Pressure Visibility Wind Dir Wind Speed Gust Speed Precip Events Conditions
12:13 AM 77.0 °F 60.4 °F 56% 29.63 in 10.0 mi South 13.8 mph 27.6 mph N/A   Scattered Clouds
12:33 AM 77.2 °F 61.7 °F 59% 29.65 in 10.0 mi SSW 10.4 mph 20.7 mph N/A   Clear
12:54 AM 77.0 °F 62.6 °F 61% 29.67 in 10.0 mi SSW 8.1 mph - N/A   Clear
1:14 AM 75.9 °F 63.3 °F 65% 29.67 in 10.0 mi SSW 10.4 mph - N/A   Scattered Clouds
1:34 AM 75.0 °F 64.2 °F 69% 29.65 in 10.0 mi South 10.4 mph 18.4 mph N/A   Mostly Cloudy
1:54 AM 72.3 °F 66.0 °F 80% 29.67 in 10.0 mi West 9.2 mph 26.5 mph N/A Rain Light Rain
2:14 AM 72.5 °F 66.4 °F 81% 29.67 in 10.0 mi West 12.7 mph 20.7 mph N/A   Overcast
2:34 AM 72.1 °F 66.4 °F 82% 29.67 in 10.0 mi West 8.1 mph - N/A   Overcast
2:54 AM 71.8 °F 66.4 °F 83% 29.67 in 10.0 mi WNW 9.2 mph - N/A   Overcast
3:14 AM 71.2 °F 64.6 °F 79% 29.68 in 10.0 mi NW 5.8 mph - N/A   Overcast
3:34 AM 70.3 °F 64.6 °F 82% 29.67 in 10.0 mi NNW 8.1 mph - N/A   Mostly Cloudy
3:55 AM 70.7 °F 60.8 °F 71% 29.67 in 10.0 mi North 13.8 mph 17.3 mph N/A   Mostly Cloudy
4:15 AM 70.2 °F 60.6 °F 72% 29.67 in 10.0 mi North 9.2 mph 19.6 mph N/A   Mostly Cloudy
4:35 AM 69.4 °F 60.8 °F 74% 29.68 in 10.0 mi North 8.1 mph 17.3 mph N/A   Mostly Cloudy
4:55 AM 68.9 °F 60.8 °F 75% 29.69 in 10.0 mi NNW 8.1 mph - N/A   Scattered Clouds
5:15 AM 68.9 °F 59.4 °F 72% 29.71 in 10.0 mi North 5.8 mph - N/A   Mostly Cloudy
5:35 AM 68.4 °F 60.3 °F 75% 29.71 in 10.0 mi North 10.4 mph - N/A   Overcast
5:55 AM 68.4 °F 58.5 °F 71% 29.72 in 10.0 mi NNW 6.9 mph - N/A   Overcast
6:15 AM 68.0 °F 57.4 °F 69% 29.72 in 10.0 mi NNW 8.1 mph - N/A   Overcast
6:36 AM 68.0 °F 57.2 °F 68% 29.73 in 10.0 mi NNW 4.6 mph - N/A   Overcast
6:56 AM 67.1 °F 56.3 °F 68% 29.73 in 10.0 mi North 6.9 mph - N/A   Mostly Cloudy
7:16 AM 66.4 °F 55.9 °F 69% 29.73 in 10.0 mi North 6.9 mph - N/A   Scattered Clouds
7:36 AM 66.6 °F 55.6 °F 68% 29.73 in 10.0 mi NNW 4.6 mph - N/A   Clear
7:56 AM 67.1 °F 55.4 °F 66% 29.73 in 10.0 mi North 8.1 mph - N/A   Clear
8:16 AM 67.3 °F 55.6 °F 66% 29.74 in 10.0 mi NNW 10.4 mph 18.4 mph N/A   Scattered Clouds
8:36 AM 67.3 °F 55.4 °F 66% 29.74 in 10.0 mi North 5.8 mph 18.4 mph N/A   Scattered Clouds
8:56 AM 67.6 °F 54.9 °F 64% 29.75 in 10.0 mi North 11.5 mph 18.4 mph N/A   Clear
9:16 AM 66.0 °F 54.9 °F 67% 29.76 in 10.0 mi NNW 10.4 mph 19.6 mph N/A   Scattered Clouds
9:31 AM 67.8 °F 54.3 °F 62% 29.76 in 10.0 mi NNW 13.8 mph 19.6 mph N/A   Scattered Clouds
9:52 AM 65.8 °F 53.6 °F 65% 29.76 in 10.0 mi NNW 8.1 mph 17.3 mph N/A   Mostly Cloudy
10:12 AM 67.5 °F 54.5 °F 63% 29.77 in 10.0 mi North 12.7 mph 17.3 mph N/A   Mostly Cloudy
10:32 AM 64.6 °F 54.3 °F 69% 29.78 in 10.0 mi NNW 12.7 mph 18.4 mph N/A   Mostly Cloudy
10:52 AM 65.1 °F 54.3 °F 68% 29.80 in 10.0 mi NNW 12.7 mph 18.4 mph N/A   Overcast
11:12 AM 63.5 °F 53.4 °F 70% 29.81 in 10.0 mi NNW 12.7 mph 20.7 mph N/A   Overcast
11:32 AM 64.2 °F 51.3 °F 63% 29.83 in 10.0 mi NNW 12.7 mph 21.9 mph N/A   Overcast
11:52 AM 64.9 °F 50.9 °F 60% 29.84 in 10.0 mi NNW 11.5 mph 19.6 mph N/A   Overcast
12:12 PM 66.2 °F 50.2 °F 56% 29.85 in 10.0 mi NNW 15.0 mph 24.2 mph N/A   Mostly Cloudy
12:32 PM 66.9 °F 51.1 °F 57% 29.85 in 10.0 mi North 12.7 mph 19.6 mph N/A   Mostly Cloudy
12:53 PM 63.7 °F 50.2 °F 61% 29.85 in 10.0 mi NNW 11.5 mph 20.7 mph N/A   Overcast
1:13 PM 64.0 °F 51.1 °F 63% 29.86 in 10.0 mi NNW 15.0 mph 21.9 mph N/A   Overcast
1:33 PM 63.7 °F 51.1 °F 64% 29.86 in 10.0 mi NNW 11.5 mph 23.0 mph N/A   Overcast
1:53 PM 62.1 °F 51.3 °F 68% 29.87 in 10.0 mi NNW 13.8 mph 23.0 mph N/A   Overcast
2:13 PM 61.9 °F 50.4 °F 66% 29.88 in 10.0 mi NNW 16.1 mph 23.0 mph N/A   Overcast
2:33 PM 64.0 °F 50.5 °F 61% 29.89 in 10.0 mi NNW 16.1 mph 25.3 mph N/A   Overcast
2:53 PM 61.3 °F 48.9 °F 64% 29.90 in 10.0 mi NNW 15.0 mph 23.0 mph N/A   Overcast
3:13 PM 62.1 °F 48.2 °F 60% 29.89 in 10.0 mi NNW 17.3 mph 27.6 mph N/A   Overcast
3:34 PM 61.9 °F 48.2 °F 61% 29.90 in 10.0 mi North 13.8 mph 19.6 mph N/A   Overcast
3:54 PM 61.5 °F 48.7 °F 63% 29.90 in 10.0 mi NNW 12.7 mph 24.2 mph N/A   Overcast
4:14 PM 62.1 °F 48.4 °F 61% 29.90 in 10.0 mi NNW 10.4 mph 24.2 mph N/A   Overcast
4:34 PM 63.5 °F 47.8 °F 57% 29.90 in 10.0 mi North 11.5 mph 23.0 mph N/A   Mostly Cloudy
4:54 PM 62.6 °F 48.0 °F 59% 29.91 in 10.0 mi North 16.1 mph 21.9 mph N/A   Mostly Cloudy
5:14 PM 62.2 °F 47.8 °F 59% 29.91 in 10.0 mi North 11.5 mph 24.2 mph N/A   Overcast
5:34 PM 62.6 °F 48.2 °F 59% 29.92 in 10.0 mi North 12.7 mph 21.9 mph N/A   Overcast
5:54 PM 62.8 °F 47.3 °F 57% 29.93 in 10.0 mi North 12.7 mph 24.2 mph N/A   Mostly Cloudy
6:14 PM 62.2 °F 47.1 °F 58% 29.93 in 10.0 mi NNW 12.7 mph 24.2 mph N/A   Mostly Cloudy
6:34 PM 62.1 °F 47.1 °F 58% 29.93 in 10.0 mi North 11.5 mph 20.7 mph N/A   Scattered Clouds
6:55 PM 63.3 °F 47.7 °F 57% 29.93 in 10.0 mi North 11.5 mph 19.6 mph N/A   Scattered Clouds
7:15 PM 62.4 °F 47.1 °F 57% 29.93 in 10.0 mi North 10.4 mph 19.6 mph N/A   Mostly Cloudy
7:35 PM 61.7 °F 46.9 °F 58% 29.93 in 10.0 mi North 10.4 mph 17.3 mph N/A   Scattered Clouds
7:55 PM 61.5 °F 46.2 °F 57% 29.93 in 10.0 mi North 10.4 mph 19.6 mph N/A   Scattered Clouds
8:15 PM 61.0 °F 45.0 °F 56% 29.93 in 10.0 mi North 10.4 mph 21.9 mph N/A   Clear
8:35 PM 60.8 °F 45.0 °F 56% 29.93 in 10.0 mi NNW 8.1 mph 18.4 mph N/A   Clear
8:55 PM 60.3 °F 43.9 °F 55% 29.93 in 10.0 mi North 8.1 mph 16.1 mph N/A   Clear
9:15 PM 59.9 °F 43.9 °F 55% 29.94 in 10.0 mi North 8.1 mph 18.4 mph N/A   Clear
9:35 PM 60.1 °F 43.3 °F 54% 29.94 in 10.0 mi NNW 9.2 mph 18.4 mph N/A   Clear
9:56 PM 60.1 °F 42.8 °F 53% 29.94 in 10.0 mi North 6.9 mph - N/A   Clear
10:16 PM 59.9 °F 44.2 °F 56% 29.95 in 10.0 mi North 5.8 mph - N/A   Clear
10:36 PM 59.7 °F 44.6 °F 57% 29.96 in 10.0 mi North 8.1 mph - N/A   Clear
10:56 PM 59.9 °F 44.8 °F 57% 29.95 in 10.0 mi North 9.2 mph - N/A   Clear
11:16 PM 60.1 °F 43.9 °F 55% 29.96 in 10.0 mi North 6.9 mph - N/A   Clear
11:36 PM 59.9 °F 44.4 °F 57% 29.96 in 10.0 mi North 8.1 mph 17.3 mph N/A   Clear
11:56 PM 60.1 °F 44.4 °F 56% 29.97 in 10.0 mi North 6.9 mph - N/A   Clear